Location: Iroquois Falls
(48.7680°N, 80.6732°W)
Time: 03:43:54
(UTC-05:00)

ISS - Visible Passes

Search period start: 24 February 2024 00:00
Search period end: 05 March 2024 00:00
Orbit: 414 x 417 km, 51.6° (Epoch: 23 February)

Date Brightness Start Highest point End Pass type
(mag) Time Alt. Az. Time Alt. Az. Time Alt. Az.
24 Feb -3.7 05:30:24 56° WNW 05:30:53 66° NNW 05:34:15 10° ENE visible
25 Feb -2.0 04:43:37 32° ENE 04:43:37 32° ENE 04:45:34 10° ENE visible
25 Feb -3.2 06:16:29 15° WNW 06:19:08 49° N 06:22:25 10° ENE visible
26 Feb -0.2 03:56:46 10° ENE 03:56:46 10° ENE 03:56:50 10° ENE visible
26 Feb -3.3 05:29:39 42° NW 05:30:20 51° N 05:33:38 10° ENE visible
27 Feb -2.1 04:42:45 33° NE 04:42:45 33° NE 04:44:50 10° ENE visible
27 Feb -3.3 06:15:38 13° WNW 06:18:32 56° N 06:21:50 10° E visible
28 Feb -0.3 03:55:50 11° ENE 03:55:50 11° ENE 03:56:02 10° ENE visible
28 Feb -3.2 05:28:42 36° NW 05:29:41 50° N 05:32:58 10° E visible
29 Feb -2.2 04:41:46 36° NE 04:41:46 36° NE 04:44:04 10° ENE visible
29 Feb -3.7 06:14:38 12° WNW 06:17:45 81° NNE 06:21:05 10° ESE visible
01 Mar -0.4 03:54:49 12° ENE 03:54:49 12° ENE 03:55:10 10° ENE visible
01 Mar -3.5 05:27:41 35° NW 05:28:52 64° NNE 05:32:12 10° E visible
02 Mar -2.5 04:40:45 41° ENE 04:40:45 41° ENE 04:43:14 10° E visible
02 Mar -3.5 06:13:37 11° WNW 06:16:42 56° SSW 06:19:59 10° SE visible
03 Mar -0.4 03:53:50 13° ENE 03:53:50 13° ENE 03:54:14 10° E visible
03 Mar -3.9 05:26:42 39° WNW 05:27:50 81° SSW 05:31:10 10° ESE visible
04 Mar -2.7 04:39:50 44° E 04:39:50 44° E 04:42:14 10° ESE visible
04 Mar -2.6 06:12:42 11° W 06:15:23 27° SW 06:18:16 10° SSE visible
